This is the latest recevied weather packets stored in our database for station/object KA3WVU. If no packets are shown the sender has not sent any weather packets the latest 10 day(s).
| Time | Temp. | Humidity | Pressure | Rain* | Wind** | Luminosity | Snow |
|---|---|---|---|---|---|---|---|
| 1777870097 | 6.11° C | 60% | 1012.8 hPa | 0 mm | - | 0 W/m² | - |
| 1777869795 | 5.56° C | 61% | 1012.6 hPa | 0 mm | - | 0 W/m² | - |
| 1777869492 | 5.56° C | 60% | 1012.7 hPa | 0 mm | - | 0 W/m² | - |
| 1777869189 | 6.11° C | 60% | 1012.8 hPa | 0 mm | - | 0 W/m² | - |
| 1777868887 | 6.11° C | 60% | 1012.7 hPa | 0 mm | - | 0 W/m² | - |
| 1777868583 | 6.11° C | 59% | 1012.7 hPa | 0 mm | - | 0 W/m² | - |
| 1777868279 | 6.11° C | 60% | 1012.7 hPa | 0 mm | - | 0 W/m² | - |
| 1777867975 | 6.11° C | 59% | 1012.5 hPa | 0 mm | - | 0 W/m² | - |
| 1777867671 | 6.11° C | 59% | 1012.7 hPa | 0 mm | - | 0 W/m² | - |
| 1777867369 | 6.11° C | 60% | 1012.9 hPa | 0 mm | - | 0 W/m² | - |
| 1777867065 | 6.11° C | 59% | 1012.7 hPa | 0 mm | - | 0 W/m² | - |
| 1777866762 | 6.11° C | 59% | 1012.7 hPa | 0 mm | - | 0 W/m² | - |
| 1777866460 | 6.11° C | 59% | 1012.7 hPa | 0 mm | - | 0 W/m² | - |
| 1777866157 | 6.11° C | 59% | 1012.7 hPa | 0 mm | - | 0 W/m² | - |
| 1777865855 | 6.11° C | 59% | 1012.8 hPa | 0 mm | - | 0 W/m² | - |
| 1777865552 | 6.67° C | 58% | 1012.7 hPa | 0 mm | - | 0 W/m² | - |
| 1777865249 | 6.67° C | 58% | 1012.7 hPa | 0 mm | - | 0 W/m² | - |
| 1777864946 | 6.67° C | 57% | 1012.6 hPa | 0 mm | - | 0 W/m² | - |
| 1777864642 | 6.67° C | 58% | 1012.8 hPa | 0 mm | - | 0 W/m² | - |
| 1777864340 | 6.67° C | 58% | 1012.7 hPa | 0 mm | - | 0 W/m² | - |
| 1777864035 | 7.22° C | 57% | 1012.6 hPa | 0 mm | - | 0 W/m² | - |
| 1777863733 | 6.67° C | 58% | 1012.8 hPa | 0 mm | - | 0 W/m² | - |
| 1777863429 | 6.67° C | 59% | 1012.7 hPa | 0 mm | - | 0 W/m² | - |
| 1777863126 | 6.67° C | 59% | 1012.7 hPa | 0 mm | - | 0 W/m² | - |
| 1777862824 | 6.67° C | 58% | 1012.8 hPa | 0 mm | - | 0 W/m² | - |
* Rain latest hour (hover to see other rain measurements)
** Current wind speed in m/s (hover to see current wind gust speed)